TimeCST,TemperatureF,Dew PointF,Humidity,Sea Level PressureIn,VisibilityMPH,Wind Direction,Wind SpeedMPH,Gust SpeedMPH,PrecipitationIn,Events,Conditions,WindDirDegrees,DateUTC
12:00 AM,68,54,52,29.82,12,ENE,13.8,,,,,60,2013-02-08 06:00:00
12:00 AM,68.0,53.6,60,30.00,-9999.0,ENE,13.8,-,N/A,,Clear,60,2013-02-08 06:00:00
1:00 AM,66.2,53.6,64,30.00,-9999.0,ENE,13.8,-,N/A,,Clear,70,2013-02-08 07:00:00
2:00 AM,66.2,53.6,64,30.00,-9999.0,East,11.5,-,N/A,,Clear,80,2013-02-08 08:00:00
3:00 AM,66,55,60,29.81,12,ENE,9.2,,,,,70,2013-02-08 09:00:00
3:00 AM,66.2,55.4,68,29.98,-9999.0,ENE,9.2,-,N/A,,Clear,70,2013-02-08 09:00:00
4:00 AM,66.2,55.4,68,29.99,-9999.0,ENE,12.7,-,N/A,,Clear,60,2013-02-08 10:00:00
5:00 AM,64.4,55.4,73,30.00,-9999.0,NE,15.0,-,N/A,,Clear,50,2013-02-08 11:00:00
6:00 AM,64,53,59,29.89,12,NE,12.7,,,,Clear,40,2013-02-08 12:00:00
6:00 AM,64.4,53.6,68,30.01,-9999.0,NE,12.7,-,N/A,,Clear,40,2013-02-08 12:00:00
7:00 AM,69.8,53.6,56,30.03,-9999.0,NE,11.5,-,N/A,,Clear,50,2013-02-08 13:00:00
8:00 AM,73.4,55.4,53,30.04,-9999.0,East,11.5,-,N/A,,Clear,100,2013-02-08 14:00:00
9:00 AM,76,55,38,29.91,12,East,11.5,,,,Clear,90,2013-02-08 15:00:00
9:00 AM,77.0,55.4,47,30.06,-9999.0,East,11.5,23.0,N/A,,Clear,90,2013-02-08 15:00:00
10:00 AM,78.8,53.6,42,30.05,-9999.0,East,13.8,-,N/A,,Clear,80,2013-02-08 16:00:00
11:00 AM,80.6,51.8,37,30.04,6.2,East,11.5,23.0,N/A,,Scattered Clouds,100,2013-02-08 17:00:00
12:00 PM,82,53,27,29.85,12,ESE,13.8,,,,Scattered Clouds,110,2013-02-08 18:00:00
12:00 PM,82.4,53.6,37,30.02,6.2,ESE,13.8,-,N/A,,Scattered Clouds,110,2013-02-08 18:00:00
1:00 PM,84.2,53.6,35,29.99,6.2,East,13.8,-,N/A,,Scattered Clouds,100,2013-02-08 19:00:00
2:00 PM,84.2,51.8,33,29.97,6.2,East,11.5,23.0,N/A,,Scattered Clouds,100,2013-02-08 20:00:00
3:00 PM,84,51,21,29.79,12,East,10.4,,,,Scattered Clouds,90,2013-02-08 21:00:00
3:00 PM,84.2,50.0,30,29.95,6.2,East,10.4,-,N/A,,Scattered Clouds,90,2013-02-08 21:00:00
4:00 PM,80.6,55.4,42,29.95,6.2,ENE,11.5,-,N/A,,Scattered Clouds,70,2013-02-08 22:00:00
5:00 PM,78.8,55.4,44,29.96,6.2,ENE,11.5,-,N/A,,Scattered Clouds,70,2013-02-08 23:00:00
6:00 PM,74,54,40,29.86,12,ENE,11.5,,,,Scattered Clouds,70,2013-02-09 00:00:00
6:00 PM,75.2,53.6,47,29.97,6.2,ENE,11.5,-,N/A,,Scattered Clouds,70,2013-02-09 00:00:00
7:00 PM,73.4,53.6,50,29.99,-9999.0,ENE,15.0,-,N/A,,Clear,70,2013-02-09 01:00:00
8:00 PM,71.6,53.6,53,30.02,-9999.0,East,9.2,-,N/A,,Clear,90,2013-02-09 02:00:00
9:00 PM,70,55,50,29.87,12,East,12.7,,,,,80,2013-02-09 03:00:00
9:00 PM,69.8,55.4,60,30.03,-9999.0,East,12.7,-,N/A,,Clear,80,2013-02-09 03:00:00
10:00 PM,68.0,57.2,68,30.04,-9999.0,East,10.4,-,N/A,,Clear,90,2013-02-09 04:00:00
11:00 PM,68.0,55.4,64,30.03,-9999.0,East,11.5,23.0,N/A,,Clear,100,2013-02-09 05:00:00